Weather History for Bolton Field, OH

Change the Weather History Date:

Monday, January 14, 2013

  Actual Average Record
Temperature  
Mean Temperature 30 °F -  
Max Temperature 37 °F 33 °F 51 °F (2002)
Min Temperature 24 °F 20 °F 3 °F (1997)
Degree Days  
Heating Degree Days 34    
Moisture  
Dew Point 25 °F    
Average Humidity 84    
Maximum Humidity 93    
Minimum Humidity 74    
Precipitation  
Precipitation 0.00 in - - ()
Sea Level Pressure  
Sea Level Pressure 30.28 in    
Wind  
Wind Speed 10 mph (NW)    
Max Wind Speed 14 mph    
Max Gust Speed 20 mph    
Visibility 10 miles    
Events      
Averages and records for this station are not official NWS values.
T = Trace of Precipitation, MM = Missing Value Source: NWS Daily Summary

Daily Weather History Graph

Daily Weather History Graph

Search for Another Location

Airport:

Trip Planner

Search our weather history database for the weather conditions in past years. The results will help you decide how hot, cold, wet, or windy it might be!

Date:

Astronomy

Jan. 14, 2013 Rise Set
Actual Time 7:52 AM EST 5:31 PM EST
Civil Twilight 7:22 AM EST 6:01 PM EST
Nautical Twilight 6:49 AM EST 6:34 PM EST
Astronomical Twilight 6:17 AM EST 7:06 PM EST
Moon 9:25 AM EST (1/14) 9:15 PM EST (1/14)
Length of Visible Light 10h 38m
Length of Day
9h 38m
Waxing Crescent, 11% of the Moon is Illuminated
Jan 14
Waxing Crescent
Jan 18
First Quarter
Jan 26
Full
Feb 3
Last Quarter
Feb 10
New

Hourly Weather History & Observations

Time (EST) Temp. Windchill Dew Point Humidity Pressure Visibility Wind Dir Wind Speed Gust Speed Precip Events Conditions
12:35 AM 37.6 °F 31.6 °F 35.6 °F 93% 30.09 in 10.0 mi WNW 8.1 mph - N/A   Overcast
12:55 AM 37.4 °F 28.9 °F 34.7 °F 90% 30.10 in 10.0 mi WNW 13.8 mph 19.6 mph N/A   Overcast
1:15 AM 36.9 °F 29.1 °F 33.8 °F 89% 30.11 in 10.0 mi WNW 11.5 mph 17.3 mph N/A   Overcast
1:35 AM 36.5 °F 28.2 °F 33.4 °F 89% 30.12 in 10.0 mi West 12.7 mph - N/A   Overcast
1:55 AM 36.1 °F 27.3 °F 33.4 °F 90% 30.13 in 10.0 mi WNW 13.8 mph 17.3 mph N/A   Overcast
2:15 AM 35.8 °F 27.8 °F 32.9 °F 89% 30.15 in 10.0 mi West 11.5 mph - N/A   Overcast
2:35 AM 35.1 °F 26.9 °F 32.0 °F 89% 30.17 in 10.0 mi West 11.5 mph - N/A   Overcast
2:55 AM 34.7 °F 26.4 °F 32.0 °F 90% 30.18 in 10.0 mi WNW 11.5 mph - N/A   Overcast
3:15 AM 34.0 °F 26.0 °F 31.3 °F 90% 30.19 in 10.0 mi NW 10.4 mph - N/A   Overcast
3:35 AM 32.9 °F 24.1 °F 29.3 °F 87% 30.20 in 10.0 mi WNW 11.5 mph 17.3 mph N/A   Overcast
3:55 AM 32.0 °F 23.6 °F 28.8 °F 88% 30.20 in 10.0 mi NW 10.4 mph - N/A   Overcast
4:35 AM 30.9 °F 21.2 °F 27.3 °F 86% 30.21 in 10.0 mi WNW 12.7 mph - N/A   Overcast
5:15 AM 29.3 °F 20.2 °F 25.5 °F 86% 30.24 in 10.0 mi West 10.4 mph - N/A   Overcast
5:35 AM 28.8 °F 19.0 °F 24.8 °F 85% 30.25 in 10.0 mi NW 11.5 mph - N/A   Overcast
5:55 AM 28.6 °F 18.7 °F 24.6 °F 85% 30.25 in 10.0 mi WNW 11.5 mph - N/A   Overcast
6:15 AM 27.3 °F 17.1 °F 23.2 °F 84% 30.26 in 10.0 mi WNW 11.5 mph 16.1 mph N/A   Overcast
6:35 AM 26.6 °F 17.5 °F 23.0 °F 86% 30.27 in 10.0 mi NW 9.2 mph - N/A   Overcast
6:55 AM 26.6 °F 16.8 °F 22.8 °F 86% 30.28 in 10.0 mi NW 10.4 mph - N/A   Overcast
7:15 AM 26.2 °F 16.4 °F 22.6 °F 86% 30.30 in 10.0 mi NW 10.4 mph - N/A   Overcast
7:47 AM 24.8 °F 14.6 °F 21.2 °F 86% 30.32 in 10.0 mi NW 10.4 mph - N/A   Overcast
8:50 AM 26.6 °F 21.2 °F 21.2 °F 80% 30.38 in 10.0 mi West 4.6 mph - N/A   Overcast
9:47 AM 26.6 °F 18.2 °F 21.2 °F 80% 30.38 in 10.0 mi NW 8.1 mph - N/A   Overcast
10:50 AM 26.6 °F 21.2 °F 21.2 °F 80% 30.39 in 10.0 mi NW 4.6 mph - N/A   Overcast
11:50 AM 26.6 °F 18.2 °F 21.2 °F 80% 30.35 in 10.0 mi North 8.1 mph - N/A   Overcast
12:51 PM 28.4 °F 21.2 °F 21.2 °F 74% 30.29 in 10.0 mi North 6.9 mph - N/A   Mostly Cloudy
1:50 PM 28.4 °F 23.3 °F 21.2 °F 74% 30.33 in 10.0 mi NW 4.6 mph - N/A   Mostly Cloudy
2:50 PM 28.4 °F 18.5 °F 21.2 °F 74% 30.32 in 10.0 mi NW 11.5 mph - N/A   Mostly Cloudy
3:50 PM 28.4 °F 18.5 °F 21.2 °F 74% 30.34 in 10.0 mi NNW 11.5 mph - N/A   Mostly Cloudy
5:50 PM 26.6 °F 17.5 °F 21.2 °F 80% 30.38 in 10.0 mi North 9.2 mph - N/A   Overcast
6:50 PM 26.6 °F 20.0 °F 21.2 °F 80% 30.38 in 10.0 mi North 5.8 mph - N/A   Mostly Cloudy
8:15 PM 27.1 °F 19.7 °F 21.2 °F 78% 30.37 in 10.0 mi NNE 6.9 mph - N/A   Overcast
8:35 PM 27.1 °F 20.7 °F 21.0 °F 78% 30.38 in 10.0 mi NNE 5.8 mph - N/A   Overcast
8:55 PM 27.1 °F 19.7 °F 21.2 °F 78% 30.36 in 10.0 mi NNE 6.9 mph - N/A   Overcast
9:15 PM 27.0 °F 21.6 °F 21.6 °F 80% 30.36 in 10.0 mi North 4.6 mph - N/A   Overcast
9:35 PM 26.6 °F 22.6 °F 21.4 °F 81% 30.35 in 10.0 mi NNE 3.5 mph - N/A   Mostly Cloudy
9:55 PM 25.7 °F - 21.2 °F 83% 30.33 in 10.0 mi North - - N/A   Clear
10:15 PM 26.1 °F - 21.4 °F 82% 30.32 in 10.0 mi North - - N/A   Clear
10:35 PM 25.7 °F 20.1 °F 21.4 °F 84% 30.32 in 10.0 mi North 4.6 mph - N/A   Clear
10:55 PM 25.7 °F - 21.6 °F 84% 30.32 in 10.0 mi North - - N/A   Clear
11:15 PM 25.5 °F 19.9 °F 21.6 °F 85% 30.33 in 10.0 mi NNW 4.6 mph - N/A   Clear
11:35 PM 24.8 °F 17.9 °F 21.2 °F 86% 30.33 in 10.0 mi NNW 5.8 mph - N/A   Clear
11:55 PM 24.8 °F 17.9 °F 21.2 °F 86% 30.33 in 10.0 mi NNW 5.8 mph - N/A   Clear